Weather History for KEVV - February, 2014

Change the Weather History Date:

Sunday, February 9, 2014

  Actual Average Record
Temperature  
Mean Temperature 27 °F 35 °F  
Max Temperature 32 °F 44 °F 72 °F (1965)
Min Temperature 21 °F 26 °F -15 °F (1899)
Degree Days  
Heating Degree Days 38 30  
Month to date heating degree days 346 278  
Since 1 July heating degree days 3322 3057  
Cooling Degree Days 0 0  
Month to date cooling degree days 0 0  
Year to date cooling degree days 0 0  
Moisture  
Dew Point 21 °F    
Average Humidity 78    
Maximum Humidity 92    
Minimum Humidity 63    
Precipitation  
Precipitation 0.03 in 0.12 in 2.46 in (1965)
Month to date precipitation 1.70 1.06  
Year to date precipitation 3.39 4.16  
Snow  
Snow T in 0.10 in 1.50 in (2010)
Month to date snowfall 1.9 1.3  
Since 1 July snowfall 9.7 8.2  
Snow Depth T in    
Sea Level Pressure  
Sea Level Pressure 30.24 in    
Wind  
Wind Speed 7 mph (NW)    
Max Wind Speed 14 mph    
Max Gust Speed 18 mph    
Visibility 6 miles    
Events Snow    
T = Trace of Precipitation, MM = Missing Value Source: NWS Daily Summary

Daily Weather History Graph

Daily Weather History Graph

Search for Another Location

Airport or City:

Trip Planner

Search our weather history database for the weather conditions in past years. The results will help you decide how hot, cold, wet, or windy it might be!

Date:

Astronomy

Feb. 09, 2014 Rise Set
Actual Time 6:46 AM CST 5:22 PM CST
Civil Twilight 6:19 AM CST 5:49 PM CST
Nautical Twilight 5:48 AM CST 6:20 PM CST
Astronomical Twilight 5:17 AM CST 6:51 PM CST
Moon 1:03 PM CST (2/9) 2:50 AM CST (2/9)
Length of Visible Light 11h 29m
Length of Day
10h 35m
Waxing Gibbous, 77% of the Moon is Illuminated
Feb 9
Waxing Gibbous
Feb 14
Full
Feb 22
Last Quarter
Mar 1
New
Mar 8
First Quarter

Hourly Weather History & Observations

Time (CST) Temp. Windchill Dew Point Humidity Pressure Visibility Wind Dir Wind Speed Gust Speed Precip Events Conditions
12:54 AM 30.9 °F 27.5 °F 28.0 °F 89% 30.17 in 3.0 mi SW 3.5 mph - 0.00 in   Overcast
1:54 AM 30.9 °F 26.2 °F 28.0 °F 89% 30.17 in 4.0 mi WSW 4.6 mph - N/A   Overcast
2:22 AM 30.9 °F 24.3 °F 28.0 °F 89% 30.15 in 2.5 mi NW 6.9 mph - 0.00 in Snow Light Snow
2:32 AM 30.9 °F 25.2 °F 27.0 °F 85% 30.15 in 3.0 mi NW 5.8 mph - 0.00 in   Overcast
2:52 AM 30.2 °F 24.3 °F 28.4 °F 93% 30.15 in 4.0 mi West 5.8 mph - 0.00 in   Overcast
2:54 AM 30.0 °F 25.2 °F 28.0 °F 92% 30.17 in 4.0 mi WNW 4.6 mph - 0.00 in   Overcast
3:44 AM 30.0 °F 25.2 °F 26.1 °F 85% 30.14 in 6.0 mi NW 4.6 mph - N/A   Overcast
3:54 AM 30.0 °F 26.5 °F 26.1 °F 85% 30.14 in 7.0 mi NW 3.5 mph - N/A   Overcast
4:22 AM 30.0 °F 26.5 °F 26.1 °F 85% 30.13 in 7.0 mi North 3.5 mph - N/A   Overcast
4:54 AM 30.0 °F 23.2 °F 26.1 °F 85% 30.14 in 7.0 mi Variable 6.9 mph - N/A   Overcast
5:54 AM 28.0 °F 24.2 °F 25.0 °F 88% 30.17 in 7.0 mi NNW 3.5 mph - N/A   Overcast
6:51 AM 28.4 °F 23.3 °F 24.8 °F 86% 30.17 in 8.0 mi NNW 4.6 mph - N/A   Overcast
6:54 AM 28.0 °F 22.8 °F 25.0 °F 88% 30.19 in 8.0 mi NNW 4.6 mph - N/A   Overcast
7:13 AM 28.0 °F 22.8 °F 23.0 °F 81% 30.18 in 9.0 mi NNW 4.6 mph - N/A   Overcast
7:54 AM 28.0 °F 24.2 °F 21.9 °F 78% 30.19 in 9.0 mi North 3.5 mph - N/A   Overcast
8:23 AM 28.9 °F 25.2 °F 21.9 °F 75% 30.19 in 9.0 mi NW 3.5 mph - N/A   Overcast
8:54 AM 28.9 °F 20.4 °F 21.0 °F 72% 30.21 in 10.0 mi NW 9.2 mph - N/A   Overcast
9:36 AM 28.9 °F 21.9 °F 19.9 °F 69% 30.20 in 10.0 mi NNW 6.9 mph - N/A   Overcast
9:54 AM 28.9 °F 21.1 °F 21.9 °F 75% 30.24 in 10.0 mi NW 8.1 mph - N/A   Overcast
10:26 AM 30.0 °F 21.7 °F 21.9 °F 72% 30.21 in 9.0 mi NW 9.2 mph - N/A   Overcast
10:54 AM 30.0 °F 22.4 °F 21.9 °F 72% 30.22 in 10.0 mi NW 8.1 mph - N/A   Overcast
11:54 AM 30.9 °F 22.2 °F 21.0 °F 67% 30.20 in 10.0 mi NW 10.4 mph - N/A   Scattered Clouds
12:21 PM 30.9 °F 22.8 °F 21.0 °F 67% 30.17 in 10.0 mi NW 9.2 mph - N/A   Mostly Cloudy
12:54 PM 30.9 °F 21.7 °F 21.0 °F 67% 30.18 in 10.0 mi NW 11.5 mph - N/A   Overcast
1:54 PM 30.0 °F 22.4 °F 21.0 °F 69% 30.20 in 10.0 mi NW 8.1 mph - N/A   Overcast
2:54 PM 30.0 °F 21.7 °F 19.9 °F 66% 30.22 in 10.0 mi NNW 9.2 mph - N/A   Overcast
3:54 PM 28.9 °F 19.8 °F 19.0 °F 67% 30.25 in 10.0 mi NW 10.4 mph - N/A   Overcast
4:23 PM 28.0 °F 18.6 °F 19.9 °F 72% 30.25 in 2.5 mi NNW 10.4 mph - 0.00 in Snow Light Snow
4:31 PM 28.0 °F 18.1 °F 19.9 °F 72% 30.25 in 2.0 mi NW 11.5 mph - 0.00 in Snow Light Snow
4:35 PM 28.0 °F 18.1 °F 19.9 °F 72% 30.25 in 1.2 mi NW 11.5 mph - 0.00 in Snow Light Snow
4:48 PM 26.6 °F 19.1 °F 21.2 °F 80% 30.25 in 2.0 mi NW 6.9 mph - 0.01 in Snow Light Snow
4:54 PM 27.0 °F 18.7 °F 19.9 °F 75% 30.27 in 3.0 mi NW 8.1 mph - 0.01 in Snow Light Snow
5:08 PM 28.0 °F 20.8 °F 19.0 °F 69% 30.25 in 5.0 mi NNW 6.9 mph - 0.00 in Snow Light Snow
5:20 PM 27.0 °F 18.7 °F 19.0 °F 72% 30.25 in 2.0 mi NNW 8.1 mph - 0.00 in Snow Light Snow
5:24 PM 27.0 °F 18.0 °F 19.0 °F 72% 30.26 in 3.0 mi NNW 9.2 mph - 0.00 in Snow Light Snow
5:54 PM 27.0 °F 18.0 °F 18.0 °F 69% 30.28 in 7.0 mi North 9.2 mph - 0.00 in   Overcast
6:54 PM 26.1 °F 17.6 °F 18.0 °F 71% 30.32 in 3.0 mi NNW 8.1 mph - 0.00 in Snow Light Snow
7:03 PM 25.0 °F 17.1 °F 19.0 °F 78% 30.30 in 2.5 mi NNW 6.9 mph - 0.00 in Snow Light Snow
7:19 PM 24.1 °F 14.4 °F 19.0 °F 81% 30.29 in 1.2 mi NW 9.2 mph - 0.00 in Snow Light Snow
7:33 PM 24.1 °F 14.4 °F 19.0 °F 81% 30.28 in 1.8 mi NW 9.2 mph - 0.01 in Snow Light Snow
7:42 PM 24.1 °F 15.2 °F 19.0 °F 81% 30.29 in 2.5 mi NW 8.1 mph - 0.01 in Snow Light Snow
7:54 PM 23.0 °F 13.1 °F 18.0 °F 81% 30.31 in 2.0 mi NW 9.2 mph - 0.01 in Snow Light Snow
8:12 PM 23.0 °F 14.7 °F 18.0 °F 81% 30.29 in 2.0 mi NW 6.9 mph - 0.00 in Snow Light Snow
8:27 PM 23.0 °F 13.9 °F 17.1 °F 78% 30.31 in 2.0 mi NNW 8.1 mph - 0.00 in Snow Light Snow
8:54 PM 21.9 °F 13.4 °F 17.1 °F 82% 30.32 in 3.0 mi North 6.9 mph - 0.00 in Snow Light Snow
9:39 PM 21.9 °F 11.7 °F 17.1 °F 82% 30.32 in 2.5 mi North 9.2 mph - 0.00 in Snow Light Snow
9:50 PM 21.2 °F 12.6 °F 17.6 °F 86% 30.32 in 2.5 mi NNW 6.9 mph - 0.01 in Snow Light Snow
9:54 PM 21.0 °F 12.4 °F 17.1 °F 85% 30.34 in 2.5 mi NNW 6.9 mph - 0.01 in Snow Light Snow
10:02 PM 21.0 °F 13.4 °F 16.0 °F 81% 30.32 in 4.0 mi NNW 5.8 mph - 0.00 in Snow Light Snow
10:11 PM 21.0 °F 12.4 °F 16.0 °F 81% 30.31 in 4.0 mi NNW 6.9 mph - 0.00 in Snow Light Snow
10:54 PM 21.0 °F 11.4 °F 16.0 °F 81% 30.34 in 8.0 mi NNW 8.1 mph - 0.00 in   Overcast
11:46 PM 21.0 °F 13.4 °F 15.1 °F 78% 30.31 in 9.0 mi NNW 5.8 mph - 0.00 in   Overcast
11:54 PM 21.0 °F 13.4 °F 15.1 °F 78% 30.32 in 9.0 mi North 5.8 mph - 0.00 in   Overcast